Location: Oshawa
(43.9000°N, 78.8670°W)
Time: 05:49:33
(UTC-04:00)

Courier 1B - All Passes

Search period start: 19 September 2014 00:00
Search period end: 29 September 2014 00:00
Orbit: 963 x 1209 km, 28.3° (Epoch: 18 September)

Date Brightness Start Highest point End Pass type
(mag) Time Alt. Az. Time Alt. Az. Time Alt. Az.
19 Sep - 00:43:43 10° S 00:47:00 14° SSE 00:50:22 10° SE night (unlit)
19 Sep - 02:34:40 10° SW 02:39:57 22° S 02:45:26 10° SE visible
19 Sep - 04:27:48 10° SW 04:33:06 21° S 04:38:34 10° SE visible
19 Sep - 06:23:21 10° SW 06:26:09 12° SSW 06:28:59 10° S visible
19 Sep - 23:52:19 10° SSE 23:53:35 11° SSE 23:54:52 10° SE night (unlit)
20 Sep - 01:41:31 10° SW 01:46:25 20° S 01:51:30 10° SE night (unlit)
20 Sep - 03:34:11 10° SW 03:39:31 22° S 03:45:04 10° SE visible
20 Sep - 05:28:43 10° SW 05:32:37 15° SSW 05:36:35 10° SSE visible
21 Sep - 00:48:33 10° SSW 00:52:56 18° SSE 00:57:28 10° SE night (unlit)
21 Sep - 02:40:43 10° SW 02:45:57 23° S 02:51:26 10° SE visible
21 Sep - 04:34:36 10° SW 04:39:04 17° SSW 04:43:39 10° SSE visible
21 Sep - 23:55:52 10° SSW 23:59:29 15° SSE 00:03:13 10° SE night (unlit)
22 Sep - 01:47:22 10° SW 01:52:26 22° S 01:57:43 10° SE night (unlit)
22 Sep - 03:40:45 10° SW 03:45:31 19° SSW 03:50:27 10° SSE visible
22 Sep - 23:03:40 10° S 23:06:05 12° SSE 23:08:32 10° SE night (unlit)
23 Sep - 00:54:08 10° SW 00:58:56 21° S 01:03:54 10° SE night (unlit)
23 Sep - 02:47:05 10° SW 02:51:59 20° S 02:57:05 10° SE night (unlit)
23 Sep - 04:42:30 10° SW 04:45:00 12° SSW 04:47:32 10° S visible
24 Sep - 00:01:04 10° SSW 00:05:28 19° S 00:10:01 10° SE night (unlit)
24 Sep - 01:53:34 10° SW 01:58:28 21° S 02:03:35 10° SE night (unlit)
24 Sep - 03:47:58 10° SW 03:51:30 14° SSW 03:55:06 10° SSE visible
24 Sep - 23:08:11 10° SSW 23:12:02 16° SSE 23:15:59 10° SE night (unlit)
25 Sep - 01:00:09 10° SW 01:04:59 21° S 01:09:59 10° SE night (unlit)
25 Sep - 02:53:56 10° SW 02:58:00 16° SSW 03:02:11 10° SSE night (unlit)
25 Sep - 22:15:35 10° S 22:18:38 14° SSE 22:21:44 10° SE visible
26 Sep - 00:06:51 10° SW 00:11:30 20° S 00:16:19 10° SE night (unlit)
26 Sep - 02:00:09 10° SW 02:04:30 18° S 02:09:01 10° SSE night (unlit)
26 Sep - 21:23:41 10° S 21:25:16 11° SSE 21:26:51 10° SE visible
26 Sep - 23:13:39 10° SW 23:18:04 19° S 23:22:35 10° SE night (unlit)
27 Sep - 01:06:31 10° SW 01:11:02 19° S 01:15:41 10° SE night (unlit)
27 Sep - 03:02:00 10° SW 03:03:58 11° SSW 03:05:57 10° S night (unlit)
27 Sep - 22:20:35 10° SSW 22:24:39 17° S 22:28:45 10° SE visible
28 Sep - 00:13:01 10° SW 00:17:34 20° S 00:22:15 10° SE night (unlit)
28 Sep - 02:07:25 10° SW 02:10:31 14° SSW 02:13:41 10° S night (unlit)
28 Sep - 21:27:42 10° SSW 21:31:14 15° SSE 21:34:48 10° SE visible
28 Sep - 23:19:36 10° SW 23:24:08 20° S 23:28:45 10° SE night (unlit)
